TimeCET,TemperatureF,Dew PointF,Humidity,Sea Level PressureIn,VisibilityMPH,Wind Direction,Wind SpeedMPH,Gust SpeedMPH,PrecipitationIn,Events,Conditions,WindDirDegrees,DateUTC
12:00 AM,48.2,42.8,82,30.21,-9999.0,East,5.8,-,N/A,,Clear,90,2014-01-03 23:00:00
12:30 AM,44.6,42.8,93,30.21,-9999.0,East,5.8,-,N/A,,Clear,80,2014-01-03 23:30:00
1:00 AM,46,44,88,30.25,12,East,6.7,,,,,90,2014-01-04 00:00:00
1:00 AM,46.4,44.6,93,30.21,-9999.0,East,6.9,-,N/A,,Clear,90,2014-01-04 00:00:00
1:30 AM,46.4,42.8,87,30.21,-9999.0,East,9.2,-,N/A,,Clear,90,2014-01-04 00:30:00
2:00 AM,46.4,42.8,87,30.21,-9999.0,East,8.1,-,N/A,,Clear,90,2014-01-04 01:00:00
2:30 AM,46.4,41.0,81,30.24,-9999.0,ENE,3.5,-,N/A,,Clear,70,2014-01-04 01:30:00
3:00 AM,44.6,41.0,87,30.21,-9999.0,East,8.1,-,N/A,,Clear,90,2014-01-04 02:00:00
3:30 AM,42.8,41.0,93,30.24,-9999.0,East,6.9,-,N/A,,Clear,100,2014-01-04 02:30:00
4:00 AM,44,40,82,30.26,12,East,4.5,,,,,100,2014-01-04 03:00:00
4:00 AM,42.8,41.0,93,30.24,-9999.0,East,5.8,-,N/A,,Clear,90,2014-01-04 03:00:00
4:30 AM,46.4,41.0,81,30.24,-9999.0,East,9.2,-,N/A,,Clear,90,2014-01-04 03:30:00
5:00 AM,42.8,39.2,87,30.24,-9999.0,ENE,8.1,-,N/A,,Clear,70,2014-01-04 04:00:00
5:30 AM,44.6,41.0,87,30.24,-9999.0,East,5.8,-,N/A,,Clear,90,2014-01-04 04:30:00
6:00 AM,44.6,41.0,87,30.24,-9999.0,East,8.1,-,N/A,,Clear,80,2014-01-04 05:00:00
6:30 AM,48.2,41.0,76,30.24,-9999.0,ENE,9.2,-,N/A,,Clear,60,2014-01-04 05:30:00
7:00 AM,47,40,71,30.27,16,ENE,8.9,,,,,60,2014-01-04 06:00:00
7:00 AM,46.4,41.0,81,30.24,-9999.0,ENE,9.2,-,N/A,,Clear,60,2014-01-04 06:00:00
7:30 AM,46.4,41.0,81,30.24,-9999.0,East,9.2,-,N/A,,Clear,80,2014-01-04 06:30:00
8:00 AM,46.4,41.0,81,30.24,-9999.0,East,6.9,-,N/A,,Clear,100,2014-01-04 07:00:00
8:30 AM,50.0,41.0,71,30.24,-9999.0,East,9.2,-,N/A,,Clear,90,2014-01-04 07:30:00
9:00 AM,50.0,42.8,76,30.24,-9999.0,East,8.1,-,N/A,,Clear,100,2014-01-04 08:00:00
9:30 AM,51.8,42.8,71,30.24,-9999.0,East,6.9,-,N/A,,Clear,90,2014-01-04 08:30:00
10:00 AM,53,42,58,30.27,16,East,6.7,,,,Scattered Clouds,80,2014-01-04 09:00:00
10:00 AM,53.6,42.8,67,30.24,6.2,East,8.1,-,N/A,,Partly Cloudy,80,2014-01-04 09:00:00
10:30 AM,55.4,46.4,72,30.24,6.2,ESE,9.2,-,N/A,,Partly Cloudy,110,2014-01-04 09:30:00
11:00 AM,57.2,46.4,67,30.24,6.2,ESE,10.4,-,N/A,,Partly Cloudy,120,2014-01-04 10:00:00
11:30 AM,57.2,48.2,72,30.24,6.2,ESE,12.7,-,N/A,,Partly Cloudy,110,2014-01-04 10:30:00
12:00 PM,57.2,48.2,72,30.21,6.2,ESE,12.7,-,N/A,,Partly Cloudy,120,2014-01-04 11:00:00
12:30 PM,57.2,48.2,72,30.21,6.2,SE,11.5,-,N/A,,Partly Cloudy,130,2014-01-04 11:30:00
1:00 PM,58,47,58,30.21,16,SSE,11.2,,,,Scattered Clouds,160,2014-01-04 12:00:00
1:00 PM,57.2,48.2,72,30.21,6.2,SSE,11.5,-,N/A,,Partly Cloudy,160,2014-01-04 12:00:00
1:30 PM,57.2,48.2,72,30.18,6.2,SSE,10.4,-,N/A,,Partly Cloudy,150,2014-01-04 12:30:00
2:00 PM,57.2,48.2,72,30.18,6.2,SSE,11.5,-,N/A,,Partly Cloudy,150,2014-01-04 13:00:00
2:30 PM,57.2,48.2,72,30.18,6.2,SE,11.5,-,N/A,,Partly Cloudy,130,2014-01-04 13:30:00
3:00 PM,57.2,48.2,72,30.18,6.2,SE,12.7,-,N/A,,Partly Cloudy,130,2014-01-04 14:00:00
3:30 PM,55.4,48.2,77,30.18,6.2,ESE,12.7,-,N/A,,Partly Cloudy,120,2014-01-04 14:30:00
4:00 PM,55,48,71,30.19,12,SE,11.2,,,,Partly Cloudy,140,2014-01-04 15:00:00
4:00 PM,55.4,48.2,77,30.18,6.2,SE,11.5,-,N/A,,Scattered Clouds,140,2014-01-04 15:00:00
4:30 PM,55.4,48.2,77,30.18,6.2,ESE,13.8,-,N/A,,Scattered Clouds,120,2014-01-04 15:30:00
5:00 PM,53.6,48.2,82,30.18,6.2,ESE,12.7,-,N/A,,Partly Cloudy,110,2014-01-04 16:00:00
5:30 PM,53.6,46.4,77,30.15,6.2,ESE,12.7,-,N/A,,Partly Cloudy,120,2014-01-04 16:30:00
6:00 PM,53.6,46.4,77,30.15,6.2,East,13.8,-,N/A,,Partly Cloudy,100,2014-01-04 17:00:00
6:30 PM,53.6,44.6,72,30.15,6.2,ESE,16.1,-,N/A,,Scattered Clouds,120,2014-01-04 17:30:00
7:00 PM,54,45,62,30.16,12,ESE,17.9,,,,Overcast,110,2014-01-04 18:00:00
7:00 PM,53.6,44.6,72,30.15,6.2,ESE,18.4,-,N/A,,Mostly Cloudy,110,2014-01-04 18:00:00
7:30 PM,53.6,44.6,72,30.12,6.2,ESE,18.4,-,N/A,,Mostly Cloudy,110,2014-01-04 18:30:00
8:00 PM,55.4,44.6,67,30.12,6.2,ESE,19.6,-,N/A,,Mostly Cloudy,120,2014-01-04 19:00:00
8:30 PM,55.4,44.6,67,30.12,6.2,ESE,18.4,-,N/A,,Mostly Cloudy,110,2014-01-04 19:30:00
9:00 PM,55.4,46.4,72,30.12,6.2,ESE,17.3,-,N/A,,Mostly Cloudy,110,2014-01-04 20:00:00
9:30 PM,53.6,46.4,77,30.12,6.2,ESE,19.6,-,N/A,,Mostly Cloudy,110,2014-01-04 20:30:00
10:00 PM,54,46,67,30.13,12,ESE,20.1,,,,Mostly Cloudy,110,2014-01-04 21:00:00
10:00 PM,53.6,46.4,77,30.12,6.2,ESE,19.6,-,N/A,,Mostly Cloudy,110,2014-01-04 21:00:00
10:30 PM,53.6,46.4,77,30.12,6.2,ESE,18.4,-,N/A,,Mostly Cloudy,110,2014-01-04 21:30:00
11:00 PM,55.4,50.0,82,30.09,6.2,ESE,20.7,-,N/A,Rain,Light Rain,120,2014-01-04 22:00:00
11:30 PM,53.6,50.0,88,30.09,6.2,ESE,21.9,-,N/A,,Scattered Clouds,110,2014-01-04 22:30:00